EW6183 Weather Reports


Display with metric or nautical units.
time (UTC)temp
F
wind
direction
speed
MPH
gust
MPH
rain 1hr
in
rain 24hr
in
rain mn
in
humidity
%
barometer
mb
20260504204529 74 227 1.0 7.0 0.00 0.00 0.00 32 1010.7
20260504203035 74 191 2.0 11.0 0.00 0.00 0.00 32 1010.6
20260504201525 74 165 2.0 7.0 0.00 0.00 0.00 31 1010.7
20260504200021 74 250 2.0 8.0 0.00 0.00 0.00 31 1011.0
20260504194528 73 332 2.0 12.0 0.00 0.00 0.00 34 1011.1
20260504193020 74 213 2.0 8.0 0.00 0.00 0.00 34 1011.3
20260504191529 74 157 1.0 9.0 0.00 0.00 0.00 33 1011.5
20260504190014 73 290 4.0 14.0 0.00 0.00 0.00 33 1012.0
20260504184518 73 147 4.0 9.0 0.00 0.00 0.00 32 1012.0
20260504183010 72 275 3.0 8.0 0.00 0.00 0.00 33 1012.1
20260504181513 73 250 4.0 9.0 0.00 0.00 0.00 36 1012.5
20260504180007 72 240 4.0 12.0 0.00 0.00 0.00 34 1012.7
20260504174503 71 285 4.0 10.0 0.00 0.00 0.00 35 1012.9
20260504173002 71 208 4.0 10.0 0.00 0.00 0.00 36 1013.0
20260504171601 71 205 4.0 19.0 0.00 0.00 0.00 36 1013.1
20260504081530 40 175 0.0 1.0 0.00 0.00 0.00 76 1016.0
20260504050008 44 202 0.0 1.0 0.00 0.00 0.00 66 1015.3
20260504044507 44 202 0.0 2.0 0.00 0.00 0.00 65 1015.2
20260504043005 44 202 0.0 1.0 0.00 0.00 0.00 64 1015.1
20260504041504 45 202 0.0 2.0 0.00 0.00 0.00 63 1015.0
20260504040006 45 202 0.0 1.0 0.00 0.00 0.00 63 1015.0
20260504034601 45 202 0.0 1.0 0.00 0.00 0.00 63 1014.8
20260504033102 44 202 1.0 3.0 0.00 0.00 0.00 64 1014.7
20260504031601 44 252 0.0 2.0 0.00 0.00 0.00 66 1014.6
20260504030059 43 252 0.0 1.0 0.00 0.00 0.00 70 1014.7
20260504024557 43 252 0.0 1.0 0.00 0.00 0.00 71 1014.6
20260504023101 43 252 0.0 0.0 0.00 0.00 0.00 71 1014.5
20260504021555 44 252 0.0 0.0 0.00 0.00 0.00 68 1014.6
20260504020055 45 252 0.0 0.0 0.00 0.00 0.00 66 1014.6
20260504014654 45 252 0.0 0.0 0.00 0.00 0.00 66 1014.5
20260504013058 46 252 0.0 0.0 0.00 0.00 0.00 64 1014.4
20260504011552 47 252 0.0 0.0 0.00 0.00 0.00 61 1014.2
20260504010054 48 252 0.0 0.0 0.00 0.00 0.00 58 1013.9
20260504004553 50 252 0.0 1.0 0.00 0.00 0.00 58 1013.8
20260504003101 51 252 0.0 0.0 0.00 0.00 0.00 52 1013.6
20260504001605 52 252 0.0 1.0 0.00 0.00 0.00 48 1013.3
20260504000106 54 259 0.0 0.0 0.00 0.00 0.00 47 1013.2
20260503234548 55 259 0.0 2.0 0.00 0.00 0.00 43 1013.0
20260503233048 56 259 0.0 1.0 0.00 0.00 0.00 41 1012.8
20260503231548 56 261 0.0 1.0 0.00 0.00 0.00 38 1012.8
20260503230055 57 233 1.0 6.0 0.00 0.00 0.00 37 1012.7
20260503224547 57 203 2.0 4.0 0.00 0.00 0.00 37 1012.7
20260503223046 58 270 1.0 5.0 0.00 0.00 0.00 35 1012.5
20260503221552 58 271 2.0 8.0 0.00 0.00 0.00 36 1012.5
20260503220045 58 284 2.0 10.0 0.00 0.00 0.00 35 1012.6
20260503214544 59 266 4.0 8.0 0.00 0.00 0.00 32 1012.6
20260503213045 59 205 3.0 8.0 0.00 0.00 0.00 33 1012.5
20260503211542 60 242 3.0 9.0 0.00 0.00 0.00 33 1012.4
20260503210044 59 253 3.0 10.0 0.00 0.00 0.00 34 1012.5